Location: Newark
(35.2672°N, 80.7344°W)
Time: 01:58:29
(UTC+00:00)

Vanguard 1 - Pass Details

Date: 29 January 2020
Orbit: 650 x 3833 km, 34.2° (Epoch: 20 February)

Event Time Altitude Azimuth Distance (km) Brightness Sun altitude
Rises 01:14:52 0° 277° (W) 3,019 13.7 -30.3°
Reaches altitude 10° 01:16:58 10° 271° (W) 2,205 12.8 -30.7°
Enters shadow 01:21:21 48° 207° (SSW) 1,149 10.4 -31.6°
